Stündliche Wetter Cecenowo

Heute, 31 Oktober, Samstag

Zeit Temperatur Niederschläge Wind Luftdruck Luftfeuchtigkeit
00:00 +8°C° 0 mm 1 m/S 762 mmHg 90%
01:00 +8°C° 0 mm 1 m/S 763 mmHg 90%
02:00 +7°C° 0 mm 1 m/S 763 mmHg 90%
03:00 +7°C° 0 mm 1 m/S 763 mmHg 90%
04:00 +7°C° 0 mm 1 m/S 763 mmHg 90%
05:00 +7°C° 0 mm 1 m/S 764 mmHg 90%
06:00 +7°C° 0 mm 1 m/S 764 mmHg 90%
07:00 +7°C° 0 mm 1 m/S 764 mmHg 90%
08:00 +8°C° 0 mm 1 m/S 765 mmHg 84%
09:00 +8°C° 0 mm 2 m/S 765 mmHg 79%
10:00 +10°C° 0 mm 2 m/S 765 mmHg 74%
11:00 +12°C° 0 mm 2 m/S 765 mmHg 70%
12:00 +12°C° 0 mm 2 m/S 765 mmHg 67%
13:00 +13°C° 0 mm 2 m/S 765 mmHg 63%
14:00 +12°C° 0 mm 2 m/S 765 mmHg 67%
15:00 +12°C° 0 mm 2 m/S 765 mmHg 71%
16:00 +10°C° 0 mm 3 m/S 765 mmHg 75%
17:00 +9°C° 0 mm 3 m/S 765 mmHg 78%
18:00 +9°C° 0 mm 3 m/S 765 mmHg 80%
19:00 +7°C° 0 mm 4 m/S 765 mmHg 83%
20:00 +7°C° 0 mm 4 m/S 765 mmHg 84%
21:00 +7°C° 0 mm 4 m/S 765 mmHg 84%
22:00 +6°C° 0 mm 5 m/S 765 mmHg 85%
23:00 +6°C° 0 mm 5 m/S 765 mmHg 85%

Morgen, 1 November, Sonntag

Zeit Temperatur Niederschläge Wind Luftdruck Luftfeuchtigkeit
00:00 +6°C° 0 mm 5 m/S 765 mmHg 86%
01:00 +6°C° 0 mm 5 m/S 765 mmHg 87%
02:00 +5°C° 0 mm 6 m/S 764 mmHg 87%
03:00 +5°C° 0 mm 6 m/S 764 mmHg 87%
04:00 +5°C° 0 mm 6 m/S 763 mmHg 87%
05:00 +5°C° 0 mm 6 m/S 763 mmHg 85%
06:00 +7°C° 0 mm 6 m/S 763 mmHg 83%
07:00 +6°C° 0 mm 7 m/S 763 mmHg 81%
08:00 +8°C° 0 mm 7 m/S 762 mmHg 76%
09:00 +9°C° 0 mm 7 m/S 762 mmHg 71%
10:00 +9°C° 0 mm 7 m/S 761 mmHg 66%
11:00 +10°C° 0 mm 7 m/S 761 mmHg 66%
12:00 +10°C° 0 mm 7 m/S 760 mmHg 66%
13:00 +11°C° 0 mm 7 m/S 760 mmHg 66%
14:00 +10°C° 0 mm 7 m/S 759 mmHg 69%
15:00 +10°C° 0 mm 7 m/S 759 mmHg 73%
16:00 +10°C° 0 mm 7 m/S 758 mmHg 76%
17:00 +10°C° 1.3 mm 7 m/S 758 mmHg 81%
18:00 +10°C° 1.3 mm 7 m/S 757 mmHg 86%
19:00 +10°C° 1.3 mm 7 m/S 757 mmHg 90%
20:00 +10°C° 0.2 mm 6 m/S 757 mmHg 91%
21:00 +11°C° 0.2 mm 6 m/S 756 mmHg 91%
22:00 +11°C° 0.2 mm 6 m/S 756 mmHg 91%
23:00 +11°C° 0 mm 6 m/S 756 mmHg 90%

übermorgen, 2 November, Montag

Zeit Temperatur Niederschläge Wind Luftdruck Luftfeuchtigkeit
00:00 +11°C° 0 mm 6 m/S 756 mmHg 90%
01:00 +11°C° 0 mm 6 m/S 755 mmHg 89%
02:00 +11°C° 0.3 mm 6 m/S 755 mmHg 89%
03:00 +11°C° 0.3 mm 7 m/S 755 mmHg 90%
04:00 +12°C° 0.3 mm 7 m/S 755 mmHg 90%
05:00 +11°C° 0 mm 6 m/S 756 mmHg 89%
06:00 +10°C° 0 mm 5 m/S 756 mmHg 89%
07:00 +11°C° 0 mm 4 m/S 756 mmHg 88%
08:00 +11°C° 0 mm 4 m/S 756 mmHg 86%
09:00 +11°C° 0 mm 4 m/S 756 mmHg 83%
10:00 +12°C° 0 mm 4 m/S 756 mmHg 80%
11:00 +12°C° 0 mm 4 m/S 756 mmHg 82%
12:00 +13°C° 0 mm 5 m/S 756 mmHg 83%
13:00 +13°C° 0 mm 6 m/S 756 mmHg 84%
14:00 +13°C° 0 mm 6 m/S 756 mmHg 87%
15:00 +14°C° 0 mm 6 m/S 756 mmHg 90%
16:00 +14°C° 0 mm 6 m/S 755 mmHg 93%
17:00 +14°C° 0.1 mm 6 m/S 755 mmHg 93%
18:00 +15°C° 0.1 mm 6 m/S 755 mmHg 92%
19:00 +15°C° 0.1 mm 6 m/S 756 mmHg 92%
20:00 +15°C° 0 mm 6 m/S 755 mmHg 91%
21:00 +15°C° 0 mm 6 m/S 755 mmHg 89%
22:00 +15°C° 0 mm 6 m/S 755 mmHg 88%
23:00 +15°C° 0 mm 6 m/S 755 mmHg 87%

3 November, Dienstag

Zeit Temperatur Niederschläge Wind Luftdruck Luftfeuchtigkeit
00:00 +15°C° 0 mm 6 m/S 756 mmHg 86%
01:00 +15°C° 0 mm 6 m/S 756 mmHg 85%
02:00 +15°C° 0.1 mm 6 m/S 756 mmHg 84%
03:00 +14°C° 0.1 mm 6 m/S 757 mmHg 83%
04:00 +14°C° 0.1 mm 6 m/S 757 mmHg 83%
05:00 +13°C° 0 mm 6 m/S 758 mmHg 81%
06:00 +11°C° 0 mm 6 m/S 758 mmHg 80%
07:00 +10°C° 0 mm 6 m/S 759 mmHg 78%
08:00 +10°C° 0 mm 7 m/S 760 mmHg 75%
09:00 +10°C° 0 mm 8 m/S 760 mmHg 71%
10:00 +11°C° 0 mm 9 m/S 761 mmHg 68%
11:00 +11°C° 0 mm 9 m/S 761 mmHg 65%
12:00 +11°C° 0 mm 9 m/S 762 mmHg 62%
13:00 +11°C° 0 mm 9 m/S 762 mmHg 58%
14:00 +10°C° 0 mm 8 m/S 763 mmHg 61%
15:00 +9°C° 0 mm 8 m/S 763 mmHg 63%
16:00 +9°C° 0 mm 7 m/S 763 mmHg 65%
17:00 +8°C° 0 mm 7 m/S 764 mmHg 67%
18:00 +8°C° 0 mm 6 m/S 764 mmHg 69%
19:00 +7°C° 0 mm 6 m/S 764 mmHg 71%
20:00 +7°C° 0 mm 6 m/S 765 mmHg 72%
21:00 +7°C° 0 mm 6 m/S 765 mmHg 73%
22:00 +7°C° 0 mm 6 m/S 765 mmHg 73%
23:00 +7°C° 0 mm 5 m/S 765 mmHg 74%

4 November, Mittwoch

Zeit Temperatur Niederschläge Wind Luftdruck Luftfeuchtigkeit
00:00 +6°C° 0 mm 5 m/S 765 mmHg 75%
01:00 +6°C° 0 mm 5 m/S 766 mmHg 76%
02:00 +6°C° 0 mm 5 m/S 766 mmHg 76%
03:00 +6°C° 0 mm 4 m/S 766 mmHg 77%
04:00 +6°C° 0 mm 4 m/S 766 mmHg 77%
05:00 +6°C° 0 mm 4 m/S 766 mmHg 77%
06:00 +6°C° 0 mm 4 m/S 766 mmHg 77%
07:00 +6°C° 0 mm 4 m/S 767 mmHg 77%
08:00 +7°C° 0 mm 4 m/S 767 mmHg 74%
09:00 +7°C° 0 mm 4 m/S 767 mmHg 71%
10:00 +8°C° 0 mm 4 m/S 768 mmHg 68%
11:00 +10°C° 0 mm 4 m/S 768 mmHg 67%
12:00 +9°C° 0 mm 5 m/S 768 mmHg 65%
13:00 +10°C° 0 mm 5 m/S 768 mmHg 63%
14:00 +9°C° 0.2 mm 5 m/S 769 mmHg 67%
15:00 +8°C° 0.2 mm 5 m/S 769 mmHg 71%
16:00 +8°C° 0.2 mm 4 m/S 769 mmHg 74%
17:00 +7°C° 0 mm 4 m/S 770 mmHg 78%
18:00 +6°C° 0 mm 4 m/S 770 mmHg 81%
19:00 +6°C° 0 mm 4 m/S 771 mmHg 85%
20:00 +6°C° 0 mm 4 m/S 771 mmHg 87%
21:00 +5°C° 0 mm 4 m/S 772 mmHg 89%
22:00 +5°C° 0 mm 3 m/S 772 mmHg 90%
23:00 +5°C° 0 mm 3 m/S 772 mmHg 91%

5 November, Donnerstag

Zeit Temperatur Niederschläge Wind Luftdruck Luftfeuchtigkeit
00:00 +5°C° 0 mm 3 m/S 773 mmHg 92%
01:00 +5°C° 0 mm 3 m/S 773 mmHg 93%
02:00 +5°C° 0 mm 3 m/S 773 mmHg 94%
03:00 +4°C° 0 mm 3 m/S 774 mmHg 94%
04:00 +4°C° 0 mm 3 m/S 774 mmHg 94%
05:00 +4°C° 0 mm 3 m/S 774 mmHg 94%
06:00 +4°C° 0 mm 3 m/S 775 mmHg 94%
07:00 +4°C° 0 mm 3 m/S 775 mmHg 95%
08:00 +5°C° 0 mm 3 m/S 775 mmHg 91%
09:00 +7°C° 0 mm 3 m/S 776 mmHg 88%
10:00 +8°C° 0 mm 3 m/S 776 mmHg 85%
11:00 +9°C° 0 mm 3 m/S 776 mmHg 82%
12:00 +10°C° 0 mm 3 m/S 776 mmHg 79%
13:00 +10°C° 0 mm 3 m/S 776 mmHg 76%
14:00 +10°C° 0 mm 3 m/S 776 mmHg 79%
15:00 +9°C° 0 mm 3 m/S 776 mmHg 83%
16:00 +8°C° 0 mm 3 m/S 776 mmHg 87%
17:00 +7°C° 0 mm 3 m/S 776 mmHg 89%
18:00 +7°C° 0 mm 3 m/S 776 mmHg 90%
19:00 +5°C° 0 mm 3 m/S 777 mmHg 92%
20:00 +5°C° 0 mm 4 m/S 777 mmHg 93%
21:00 +5°C° 0 mm 4 m/S 777 mmHg 93%
22:00 +5°C° 0 mm 4 m/S 777 mmHg 94%
23:00 +5°C° 0 mm 4 m/S 777 mmHg 94%
Mehr zeigen